Regional Weather Roundup
Issued by NWS

Home | Current Version | Previous Version | Text Only | Print | Product List | Glossary Off
Versions: 1 2 3 4 5 6 7 8 9 10 11 12 13 14 15 16 17 18 19 20 21 22 23 24 25 26 27 28 29 30 31 32 33 34 35 36 37 38 39 40 41 42 43 44 45 46 47 48 49 50

000
ASUS43 KOAX 030410
RWRNE
WEATHER ROUNDUP FOR NEBRASKA
NATIONAL WEATHER SERVICE OMAHA NE
1100 PM CDT TUE JUN 02 2015

NOTES: SATELLITE DATA IS BEING USED TO AUGMENT CLOUD COVER ABOVE
       12000 FEET.
       "FAIR" INDICATES FEW OR NO CLOUDS BELOW 12,000 FEET WITH NO
       SIGNIFICANT WEATHER AND/OR OBSTRUCTIONS TO VISIBILITY.

  * THESE STATIONS DO NOT REPORT WEATHER SUCH AS RAIN...SNOW OR FOG.

NEZ001>004-019>022-054>056-030500-
NEBRASKA PANHANDLE

CITY           SKY/WX    TMP DP  RH WIND       PRES   REMARKS
SCOTTSBLUFF    CLEAR     62  51  67 E5        29.85R
ALLIANCE       PTCLDY    59  54  83 NE9       29.86R
CHADRON        PTCLDY    57  54  89 CALM      29.86R
KIMBALL          N/A    N/A N/A N/A MISG        N/A
SIDNEY         PTCLDY    68  61  78 VRB5      29.86R
$$

NEZ057>060-069>072-079>082-030500-
SOUTHWEST NEBRASKA

CITY           SKY/WX    TMP DP  RH WIND       PRES   REMARKS
NORTH PLATTE   CLOUDY    71  66  84 E13       29.79R
IMPERIAL       CLEAR     73  65  75 SE10      29.78R
LEXINGTON      MOCLDY    74  66  77 SE9       29.80R
MCCOOK         CLEAR     75  65  70 SE8G18    29.76S
OGALLALA       MOCLDY    79  64  60 SE6G25    29.82R
$$

NEZ005>010-023>029-035>040-094-030500-
NORTH CENTRAL NEBRASKA

CITY           SKY/WX    TMP DP  RH WIND       PRES   REMARKS
VALENTINE      RAIN      62  58  86 W10       29.92R
AINSWORTH      CLOUDY    62  59  89 NW21G30   29.90S
BROKEN BOW     CLOUDY    73  65  75 SE8       29.82R
O`NEILL        MOCLDY    73  66  79 SE8       29.83R
ORD            MOCLDY    73  63  70 SE9       29.81R
THEDFORD       TSTM      59  57  92 W16G24    29.94R
$$

NEZ041-046>049-061>064-073>077-083>087-030500-
SOUTH CENTRAL NEBRASKA

CITY           SKY/WX    TMP DP  RH WIND       PRES   REMARKS
GRAND ISLAND   PTCLDY    74  65  73 SE17      29.84R
AURORA         CLEAR     72  67  84 SE15      29.85R
HASTINGS       PTCLDY    73  66  78 SE16      29.83S
HEBRON         CLEAR     73  65  74 SE13      29.85S
HOLDREGE       PTCLDY    72  64  76 SE10      29.81R
KEARNEY *      PTCLDY    73  64  73 SE14      29.82R
YORK           CLEAR     68  64  88 SE20G25   29.85F
$$

NEZ011>018-030>034-042>045-030500-
NORTHEAST NEBRASKA

CITY           SKY/WX    TMP DP  RH WIND       PRES   REMARKS
NORFOLK        PTCLDY    67  61  81 SE17      29.86R
ALBION         PTCLDY    70  62  75 SE13      29.86R
BLAIR          CLEAR     66  56  72 SE13G20   29.90F
COLUMBUS *     CLEAR     68  61  77 SE9G16    29.88R
FREMONT        CLEAR     66  59  78 SE13G18   29.88F
TEKAMAH        CLEAR     66  58  75 SE15      29.88F
WAYNE          PTCLDY    67  61  81 S12G22    29.87S
$$

NEZ050>053-065>068-078-088>093-030500-
SOUTHEAST NEBRASKA

CITY           SKY/WX    TMP DP  RH WIND       PRES   REMARKS
LINCOLN        CLEAR     68  61  78 SE15      29.88F
OMAHA EPPLEY   CLEAR     65  58  78 SE14      29.91S
BEATRICE       CLEAR     69  63  80 SE15G22   29.88F
FALLS CITY     MOCLDY    67  58  72 SE13      29.91S
NEBRASKA CITY  PTCLDY    64  58  83 SE10      29.92S
PLATTSMOUTH    CLEAR     64  57  78 SE12      29.91F
$$

NEZ044-045-051>053-067-030500-
OMAHA AREA

CITY           SKY/WX    TMP DP  RH WIND       PRES   REMARKS
OMAHA EPPLEY   CLEAR     65  58  78 SE14      29.91S
BLAIR          CLEAR     66  56  72 SE13G20   29.90F
FREMONT        CLEAR     66  59  78 SE13G18   29.88F
MILLARD        CLEAR     66  59  79 SE9       29.90F
OFFUTT AFB     CLEAR     64  58  82 E9        29.90F
PLATTSMOUTH    CLEAR     64  57  78 SE12      29.91F
WAHOO          FAIR      65  60  85 SE16      29.88F
$$


USA.gov is the U.S. government's official web portal to all federal, state and local government web resources and services.